TimeEST,TemperatureF,Dew PointF,Humidity,Sea Level PressureIn,VisibilityMPH,Wind Direction,Wind SpeedMPH,Gust SpeedMPH,PrecipitationIn,Events,Conditions,WindDirDegrees,DateUTC
12:55 AM,38.7,31.8,76,29.19,10.0,SSW,12.7,18.4,N/A,,Overcast,210,2012-12-22 05:55:00
1:55 AM,37.2,30.7,77,29.20,10.0,SSW,9.2,-,N/A,,Mostly Cloudy,200,2012-12-22 06:55:00
2:55 AM,35.8,29.5,78,29.21,10.0,SW,9.2,-,N/A,,Scattered Clouds,230,2012-12-22 07:55:00
3:55 AM,34.5,28.4,78,29.22,10.0,SSW,9.2,-,N/A,,Scattered Clouds,210,2012-12-22 08:55:00
4:55 AM,33.1,27.3,79,29.23,10.0,South,5.8,-,N/A,,Scattered Clouds,180,2012-12-22 09:55:00
5:55 AM,32.5,27.0,80,29.25,10.0,South,5.8,-,N/A,,Scattered Clouds,190,2012-12-22 10:55:00
6:55 AM,34.0,27.7,78,29.26,10.0,SSW,5.8,-,N/A,,Overcast,200,2012-12-22 11:55:00
7:55 AM,34.5,28.2,78,29.27,10.0,SW,8.1,-,N/A,,Mostly Cloudy,220,2012-12-22 12:55:00
8:55 AM,37.8,29.3,72,29.29,10.0,SW,10.4,-,N/A,,Mostly Cloudy,230,2012-12-22 13:55:00
9:55 AM,38.8,27.1,63,29.30,10.0,WSW,16.1,20.7,N/A,,Overcast,240,2012-12-22 14:55:00
10:55 AM,36.9,25.3,63,29.30,10.0,WSW,13.8,23.0,N/A,,Overcast,250,2012-12-22 15:55:00
11:55 AM,39.0,22.8,52,29.29,10.0,WSW,13.8,-,N/A,,Overcast,250,2012-12-22 16:55:00
12:55 PM,37.9,18.1,45,29.29,10.0,West,18.4,25.3,N/A,,Overcast,270,2012-12-22 17:55:00
1:55 PM,36.5,17.2,46,29.31,10.0,WNW,19.6,31.1,N/A,,Mostly Cloudy,290,2012-12-22 18:55:00
2:55 PM,34.9,18.3,51,29.35,10.0,West,10.4,21.9,N/A,,Mostly Cloudy,280,2012-12-22 19:55:00
3:55 PM,32.9,16.0,50,29.38,10.0,West,18.4,28.8,N/A,,Mostly Cloudy,270,2012-12-22 20:55:00
4:55 PM,31.3,14.7,50,29.42,10.0,West,23.0,33.4,N/A,,Mostly Cloudy,270,2012-12-22 21:55:00
5:55 PM,29.1,14.5,55,29.46,10.0,West,19.6,26.5,N/A,,Scattered Clouds,280,2012-12-22 22:55:00
6:55 PM,28.9,12.9,51,29.50,10.0,West,11.5,23.0,N/A,,Mostly Cloudy,280,2012-12-22 23:55:00
7:55 PM,28.2,12.6,52,29.52,10.0,West,10.4,24.2,N/A,,Scattered Clouds,280,2012-12-23 00:55:00
8:55 PM,27.5,12.6,54,29.54,10.0,West,15.0,20.7,N/A,,Scattered Clouds,280,2012-12-23 01:55:00
9:55 PM,27.5,12.4,53,29.56,10.0,West,15.0,28.8,N/A,,Scattered Clouds,280,2012-12-23 02:55:00
10:55 PM,27.0,13.1,56,29.58,10.0,West,15.0,23.0,N/A,,Scattered Clouds,280,2012-12-23 03:55:00
11:55 PM,26.4,14.9,62,29.59,10.0,West,21.9,29.9,N/A,,Partly Cloudy,280,2012-12-23 04:55:00